BREEZE-M DEB, 39330

Orbit data source: Space-Track

BREEZE-M DEB, 39330 is space debris in HEO originally from a launch on Fri, 14 Mar 2008 UTC launched from the Tyuratam Missile And Space Complex (TTMTR). Debris objects in space refer to the collection of defunct objects orbiting the Earth. Examples of debris include non-operational satellites, rocket bodies, and fragments generated from explosions, collisions, or faulty payload assembly.

Loading next visibility...
Identifier
39330, 2008-011DH
Orbit
HEO
Country
Flag of CISCIS
Related business
Manufacturer
Unknown
Mission
Spacecraft
Bus & Motor
Unknown
Mass
Unknown
Launch date (UTC)
2008-03-14 (18 years ago)
Launch vehicle
Unknown
Launch site
Tyuratam Missile And Space Complex (TTMTR)
Object type
Payload
Rocket body
Debris
Shape & HBR
Unknown shape, 0.3 m
Radar Cross Section
Medium (>0.1 m² and <1 m²)

Expand to show TLE details & history
Last TLE update: 2 days ago

TLE from 2 days ago
0 BREEZE-M DEB
1 39330U 08011DH  26171.30151720 -.00000938  00000-0 -17999-1 0  9992
2 39330  49.9449  84.1634 6485825  76.9274  21.7294  3.01288698139720
Epoch: 2026-06-20T07:14Z
TLE epoch observation values (Epoch: 2026-06-20T07:14:11.086Z)
Latitude
9.09333°
Longitude
-120.58272°
Altitude
5,516.345 km
Speed
6.881 km/s
True Right ascension
17h 05m 55s
True Declination
9° 03' 40"
Sunlit
Object was in daylight at epoch
Visualization orbit readout
Latitude
Unknown
Longitude
Unknown
Altitude
Unknown
Speed
Unknown
Apparent Right ascension
Unknown
Apparent Declination
Unknown
Sunlit
N/A
Visualization observer readout
Local Sidereal Time
00:39:46
Azimuth
Unknown
Elevation
Unknown
Doppler factor
Unknown
Orbital elements
Apogee altitude
27,005.762 km
Perigee altitude
738.089 km
Semi-major axis
20,250.062 km
Eccentricity
0.64858
Inclination
49.9449°
RAAN
84.1634°
Arg. of periapsis
76.9274°
True anomaly
91.00691°
Mean anomaly
21.7294°
Eccentric anomaly
50.33599°
Mean motion
0.75319 °/min
Orbital period
477.97 mins
BSTAR
-0.017999
Loading maneuver chart data...
Computing Atmospheric mass density...
Loading historical data...
Loading historical data...
Loading historical data...
Loading historical data...
Loading historical data...
Loading historical data...
Loading historical data...

Documentation

Showing up to 5 results
|